CAPE
1282 1180 1050 925 828 752 686 586 578 565 546 513 552 559 533 496 493 58 298 475 527 612 583 831 880 552 413 392 298 14 6 2 217 5 0 0 0 8 0 12 577 1020 1186 1343 1479 1443 1436 1776 1766 1930 2137 2199 2302 2422 2407 2388 2415 2332 1954 2432 2039 2105 2144
1267 1197 1098 965 893 816 727 631 602 568 535 538 513 610 540 522 512 422 218 442 468 570 666 704 863 536 356 369 235 10 0 4 211 245 1 0 0 0 1 0 80 638 1071 1169 1276 1284 1228 1508 1766 1709 1953 2148 2160 2297 2400 2364 2383 2331 1962 2275 2256 2261 2138
1270 1171 1093 1005 909 816 710 643 622 581 560 557 552 591 640 577 551 557 440 431 475 480 716 733 829 707 349 322 272 43 0 13 77 281 30 0 0 0 0 0 1 133 755 990 1099 1227 1276 1250 1532 1706 1712 1896 2058 2092 2470 2388 2335 2376 2126 2239 2098 2184 2323
1237 1159 1081 1006 936 842 777 693 650 604 594 616 583 666 743 801 690 603 607 611 611 496 615 789 832 717 477 284 284 127 0 2 30 201 123 0 0 0 0 0 0 25 310 870 946 1114 1314 1343 1276 1377 2030 1776 1874 1891 2083 2487 2358 2423 2322 2349 2284 2114 2048
1162 1124 1067 1045 997 892 728 641 599 570 609 650 622 721 794 860 863 736 670 676 666 600 522 759 888 785 574 283 283 240 42 0 23 59 159 45 0 0 0 0 0 0 125 886 974 1042 1246 1391 1402 1295 1315 1661 1825 1857 1836 2280 2430 2371 2351 2310 2330 2320 2217
1039 1059 1051 1089 1088 1036 899 720 606 576 618 687 736 756 821 870 942 924 824 771 772 753 734 640 854 930 682 401 259 281 158 4 17 58 69 86 42 0 0 0 0 0 9 174 881 1056 1168 1335 1395 1393 1318 1422 1648 1759 1781 1942 2349 2423 2342 2387 2321 2316 2343
938 963 1013 1050 1098 1121 1032 873 709 612 615 646 787 830 902 905 983 1030 993 898 861 877 842 779 704 896 816 570 350 266 231 104 11 45 38 28 17 30 3 0 0 0 0 54 256 633 806 890 999 1079 1220 1324 1513 1602 1677 1777 2112 2438 2449 2442 2482 2433 2435
933 932 976 1021 1060 1076 1111 1028 890 732 641 623 802 871 905 943 984 1051 1090 1064 1002 951 922 892 823 702 871 702 482 216 227 203 65 33 40 12 0 4 8 5 0 0 0 0 43 280 623 413 380 726 969 1239 1442 1546 1612 1701 1875 2280 2494 2487 2495 2531 2534
908 937 945 998 1020 1028 1096 1122 1053 934 809 736 703 958 1010 1004 1007 1050 1114 1130 1104 1039 1019 996 966 867 722 798 626 268 192 197 170 65 32 23 0 0 0 0 18 62 29 4 5 87 268 424 380 346 525 915 1286 1500 1584 1687 1785 2063 2422 2500 2500 2516 2534
844 909 957 975 978 986 1040 1105 1096 1058 962 797 679 919 1083 1086 1071 1072 1096 1142 1171 1125 1074 1063 1033 969 872 746 626 496 231 194 189 141 57 14 2 0 0 0 0 67 168 132 100 96 133 184 373 445 429 610 944 1316 1542 1692 1777 1857 2232 2429 2483 2508 2504
825 851 868 923 980 1009 1054 1121 1137 1144 1107 1021 906 995 1053 1104 1118 1104 1105 1123 1185 1212 1166 1121 1093 1053 1002 910 802 681 471 222 198 192 126 37 0 0 0 0 0 0 41 226 279 276 227 188 131 421 708 692 745 985 1278 1560 1776 1822 1940 2227 2410 2467 2474
758 789 904 823 858 941 1078 1173 1233 1184 1119 1092 1080 1105 1188 1123 1092 1094 1102 1120 1151 1292 1258 1213 1154 1125 1069 1015 916 867 793 626 201 190 166 92 16 0 0 0 0 0 0 0 132 282 385 352 204 130 402 792 828 865 1046 1264 1581 1808 1842 1940 2188 2357 2419
840 842 718 754 842 1036 1119 1266 1340 1372 1297 1173 1179 1211 1279 1290 1186 1128 1119 1133 1172 1353 1312 1270 1203 1145 1089 1036 986 944 909 829 706 456 131 121 64 4 0 0 0 0 0 0 0 9 146 386 441 323 168 432 788 902 988 1126 1318 1601 1794 1846 1910 2115 2297
910 958 998 1027 1030 1109 1182 1343 1347 1411 1418 1363 1288 1220 1270 1341 1316 1252 1185 1187 1175 1335 1514 1406 1323 1226 1117 1052 1027 998 972 913 877 810 631 71 63 33 1 0 0 0 0 0 0 0 0 63 321 447 382 318 591 849 971 1083 1198 1377 1599 1740 1794 1865 2039
891 960 992 984 970 1014 1052 1238 1324 1379 1478 1574 1511 1342 1272 1288 1345 1321 1262 1223 1201 1336 1594 1706 1582 1496 1342 1186 1118 1080 1046 1016 995 961 908 824 608 45 26 2 0 0 0 0 0 0 0 0 101 328 494 475 540 816 1031 1119 1180 1277 1439 1585 1685 1732 1815
868 955 1031 1036 1000 983 1074 1153 1170 1317 1374 1562 1542 1555 1500 1383 1326 1377 1361 1290 1225 1222 1659 1828 1836 1774 1686 1552 1345 1242 1189 1161 1132 1130 1101 1094 1011 833 411 6 0 0 0 0 0 0 0 8 98 272 450 557 645 798 1065 1250 1316 1404 1381 1498 1590 1652 1705
894 1002 1052 1074 1034 1055 1126 1209 1259 1348 1426 1480 1524 1531 1471 1644 1687 1710 1372 1318 1278 1207 1770 2060 2132 2108 2090 2033 1932 1799 1476 1414 1376 1340 1343 1375 1357 1239 988 651 7 0 0 0 0 0 12 84 153 326 495 620 707 813 1032 1299 1463 1500 1454 1496 1568 1592 1640
461 916 1041 1099 1110 1102 1154 1231 1318 1374 1410 1437 1520 1529 1571 1546 1623 1791 1672 1507 1375 1336 1516 2100 2353 2430 2448 2448 2431 2344 2205 1960 1778 1721 1714 1736 1727 1591 1323 1049 726 40 22 18 54 150 160 203 278 396 572 729 807 866 1009 1211 1436 1612 1626 1590 1580 1579 1558
266 146 832 981 1107 1216 1211 1269 1316 1350 1375 1432 1480 1534 1553 1501 1568 1661 1788 1742 1475 1451 1471 1525 1982 2332 2507 2588 2576 2560 2491 2403 2306 2268 2211 2160 2120 2040 1731 1381 1056 737 296 108 134 227 373 406 430 501 658 842 971 1012 1084 1223 1346 1586 1716 1711 1677 1650 1592
217 206 292 672 692 755 1289 1263 1276 1310 1335 1387 1437 1475 1468 1466 1449 1477 1522 1577 1711 1620 1569 1480 1467 1673 2040 2338 2560 2654 2631 2572 2542 2514 2487 2458 2444 2403 2240 1848 1382 1046 714 249 244 350 496 557 585 629 736 890 1039 1142 1192 1294 1398 1556 1718 1761 1748 1718 1697
49 204 280 376 596 531 545 987 1188 1306 1418 1475 1427 1419 1430 1447 1425 1542 1552 1576 1636 1712 1700 1708 1552 1511 1696 1901 2185 2461 2673 2731 2716 2668 2636 2604 2619 2571 2529 2363 1925 1429 1073 723 425 468 631 748 787 814 870 968 1119 1220 1296 1368 1495 1602 1726 1829 1834 1787 1756
80 126 211 345 489 474 341 102 0 643 962 953 1182 1574 1530 1537 1479 1471 1748 1721 1711 1830 1777 1664 1642 1648 1662 1648 1886 2156 2411 2677 2818 2838 2813 2766 2721 2697 2658 2572 2443 2020 1465 1068 721 690 790 926 957 982 1010 1041 1168 1291 1375 1459 1556 1646 1737 1864 1939 1939 1907
0 111 190 252 293 208 340 51 0 0 38 74 672 1060 1497 1519 1636 1641 1714 1815 1806 1767 1816 1776 1720 1725 1726 1751 1791 1833 2064 2338 2681 2796 2830 2821 2793 2759 2715 2658 2617 2415 1961 1430 1073 828 991 1128 1197 1224 1199 1182 1235 1357 1433 1505 1593 1709 1776 1826 1918 1968 1982
0 0 9 0 4 41 58 0 5 0 123 143 157 899 1340 1025 1296 1623 1573 1652 1804 1784 1810 1811 1838 1830 1806 1797 1789 1797 1782 2046 2538 2699 2768 2796 2769 2718 2714 2690 2702 2593 2288 1798 1373 1099 1082 1260 1375 1405 1417 1388 1351 1421 1513 1554 1618 1742 1852 1868 1886 1903 1916
0 0 0 0 0 0 0 0 0 0 0 0 193 108 431 1014 1064 1046 1580 1656 1589 1686 1753 1822 1861 1864 1885 1897 1910 1911 1858 1690 2332 2662 2759 2780 2782 2765 2765 2746 2740 2632 2450 2130 1652 1329 1117 1324 1472 1523 1537 1540 1515 1470 1580 1629 1668 1750 1881 1965 1963 1959 1948
0 0 0 0 0 0 0 0 0 0 0 0 74 178 0 370 632 594 737 1214 1555 1680 1764 1849 1908 1882 1877 1851 1884 1861 1747 1532 2248 2558 2686 2790 2845 2869 2860 2821 2733 2683 2551 2311 1958 1546 1332 1288 1481 1593 1625 1635 1646 1608 1573 1692 1747 1795 1897 2026 2068 2055 2015
0 0 0 0 0 0 0 0 0 0 0 0 0 0 149 0 0 247 537 720 1072 1542 1699 1745 1762 1804 1742 1802 1800 1641 1412 1636 2102 2514 2644 2711 2785 2833 2870 2845 2797 2770 2602 2416 2216 1796 1516 1356 1416 1573 1643 1675 1698 1694 1683 1706 1830 1884 1948 2071 2172 2181 2147
0 0 0 0 0 0 0 0 0 0 0 0 0 0 0 0 0 2 580 901 1123 1268 1431 1503 1487 1521 1705 1847 1880 2142 2083 1716 2020 2436 2627 2701 2781 2848 2871 2878 2855 2826 2691 2451 2291 2072 1696 1492 1429 1522 1640 1679 1700 1707 1722 1701 1718 1891 2002 2081 2202 2304 2322
0 0 0 0 0 0 0 0 0 0 0 0 0 0 0 0 0 0 29 624 964 1144 1341 1455 1402 1411 1560 1702 1928 2325 2682 2330 1916 2307 2580 2641 2706 2779 2840 2843 2828 2797 2735 2501 2277 2155 1966 1587 1485 1476 1604 1689 1698 1703 1720 1711 1712 1695 1860 2051 2183 2287 2376
0 0 0 0 0 0 0 0 0 0 0 0 0 0 0 0 0 0 0 0 343 860 1217 1324 1290 1301 1715 2208 2450 2692 2936 3079 2454 2335 2530 2619 2631 2659 2725 2765 2747 2756 2722 2560 2329 2194 2070 1829 1589 1498 1562 1681 1738 1740 1734 1731 1735 1701 1684 1710 2030 2239 2324
0 0 0 0 0 0 0 0 0 0 0 0 0 0 0 0 0 0 0 0 0 402 842 1260 1507 1881 2139 2394 2543 2730 3110 3295 2916 2444 2582 2638 2636 2634 2652 2692 2710 2703 2657 2573 2426 2246 2170 2006 1727 1587 1550 1613 1726 1797 1826 1826 1800 1779 1768 1701 1636 1804 2075
0 0 0 0 0 0 0 0 0 0 0 0 0 0 0 0 0 0 0 0 296 586 1033 1413 1648 1796 1945 2122 2310 2508 2763 2977 3233 2802 2755 2743 2726 2718 2701 2706 2680 2670 2646 2589 2502 2326 2214 2114 1925 1702 1619 1620 1708 1810 1907 1984 2016 2021 1999 1984 1891 1759 1655
0 0 0 0 0 0 0 0 0 0 0 0 0 0 0 0 0 0 0 0 357 631 934 1217 1386 1528 1716 2012 2352 2542 2636 2878 3307 3024 2917 2905 2833 2800 2797 2764 2707 2668 2648 2624 2530 2365 2260 2188 2061 1862 1686 1688 1778 1848 1977 2116 2154 2184 2204 2216 2211 2163 2081
0 0 0 0 0 0 0 0 0 0 0 0 0 0 0 0 0 0 0 64 337 563 793 1045 1259 1437 1722 2178 2555 2679 2733 2979 3416 3105 2932 3031 3000 2941 2892 2864 2828 2766 2736 2657 2539 2420 2296 2201 2180 2056 1854 1730 1777 1933 2060 2181 2264 2303 2337 2366 2382 2402 2393
0 0 0 0 0 0 0 0 0 0 0 0 0 0 0 0 0 0 0 148 329 456 690 938 1137 1397 1794 2321 2703 2802 2903 3140 3329 3171 2842 3089 3130 3096 3027 2984 2900 2870 2805 2696 2597 2471 2392 2310 2279 2215 2075 1894 1804 1912 2063 2163 2293 2371 2430 2471 2464 2464 2480
0 0 0 0 0 0 0 1 0 0 0 0 0 0 0 0 0 0 0 218 364 466 512 728 982 1283 1812 2450 2806 2897 3109 3246 3406 3222 2871 3128 3251 3263 3218 3176 3102 3055 2989 2935 2745 2649 2578 2501 2445 2398 2317 2153 2048 1926 1952 2087 2220 2323 2445 2564 2615 2609 2567
1 0 0 0 0 0 0 0 0 0 0 0 0 0 0 0 0 0 34 246 313 396 499 709 926 1248 1789 2524 2900 3022 3231 3370 3409 3294 2853 3164 3320 3358 3440 3467 3360 3292 3237 3231 3216 3168 2982 2726 2654 2582 2527 2445 2365 2188 2016 1930 2044 2147 2314 2489 2640 2707 2718
0 0 0 0 0 0 0 0 0 0 0 0 0 0 0 0 0 0 0 201 382 451 556 692 898 1179 1660 2383 2903 3107 3299 3257 3273 3270 2987 3320 3417 3494 3562 3546 3546 3518 3469 3407 3414 3439 3402 3353 3184 3022 2868 2811 2729 2597 2386 2151 1973 1944 2064 2252 2466 2680 2782
Wind_Speed
8 6 7 9 12 13 11 8 8 9 10 7 7 10 9 7 7 nan 5 5 6 6 6 6 5 5 3 5 4 nan nan nan 7 nan nan nan nan nan nan nan 5 6 6 6 6 6 6 6 4 4 4 4 4 6 7 7 7 9 7 8 7 8 9
8 7 8 10 13 15 12 9 8 9 9 8 8 10 9 9 8 8 7 7 5 6 6 7 7 6 5 5 6 nan nan nan 7 7 nan nan nan nan nan nan nan 6 6 7 7 8 8 6 4 3 2 2 4 4 5 6 7 8 7 7 6 6 7
11 9 9 11 12 13 13 11 10 9 10 9 9 9 10 9 10 10 9 9 7 6 7 6 7 8 7 7 7 nan nan nan nan 7 nan nan nan nan nan nan nan 7 6 7 8 8 8 5 5 2 1 2 3 4 4 5 6 7 7 6 6 6 7
14 11 10 9 9 9 9 10 12 8 8 10 10 10 10 10 10 9 9 11 10 6 6 7 8 9 10 8 7 7 nan nan nan 7 6 nan nan nan nan nan nan nan 10 8 7 7 6 5 3 2 1 2 3 4 4 4 5 6 6 7 8 8 8
14 12 8 5 6 9 9 9 9 8 7 9 9 9 9 10 11 10 8 9 11 10 6 7 10 12 12 10 10 10 nan nan nan nan 10 nan nan nan nan nan nan nan 8 9 9 8 7 5 3 1 1 2 3 4 4 3 4 5 7 8 9 9 9
12 13 11 8 7 10 13 12 10 9 8 9 9 8 8 10 11 12 10 8 9 9 7 7 8 10 10 9 11 10 10 nan nan nan nan nan nan nan nan nan nan nan nan 8 9 7 6 5 3 1 2 2 4 4 3 2 4 6 8 9 10 9 9
11 12 12 11 9 10 12 10 6 5 5 7 8 7 8 9 11 11 9 7 9 10 10 7 5 8 10 12 10 10 9 8 nan nan nan nan nan nan nan nan nan nan nan nan 9 8 6 5 3 2 2 4 4 4 3 3 5 7 8 9 9 9 8
11 11 12 13 11 8 8 6 4 3 3 5 6 6 7 9 10 11 9 7 7 8 8 8 4 4 8 11 11 10 10 10 nan nan nan nan nan nan nan nan nan nan nan nan nan 9 7 6 5 3 3 4 5 5 3 3 6 7 8 8 8 9 8
10 12 13 12 10 6 5 5 5 5 4 5 6 6 7 9 10 10 9 8 6 7 7 7 5 2 7 10 11 11 12 13 12 nan nan nan nan nan nan nan nan nan nan nan nan nan 8 7 6 5 4 4 5 5 3 2 5 6 7 7 7 7 8
0 7 9 11 10 9 9 10 11 12 11 9 9 7 6 6 8 9 8 7 6 7 7 6 3 1 4 7 9 11 14 14 14 12 nan nan nan nan nan nan nan nan 9 8 nan nan 8 8 7 6 5 4 5 5 4 1 3 4 5 6 6 6 7
22 16 10 10 10 13 16 17 15 12 12 12 11 9 7 5 6 8 8 8 6 5 7 6 4 2 1 4 8 11 12 12 14 12 10 nan nan nan nan nan nan nan nan 10 9 9 10 9 9 8 6 4 4 4 4 2 1 2 4 5 5 5 5
43 40 39 30 24 21 20 19 16 15 14 14 12 11 10 8 6 7 7 7 7 7 6 6 5 4 2 2 6 9 10 11 12 11 10 nan nan nan nan nan nan nan nan nan 10 11 10 9 8 8 7 5 4 4 4 4 3 2 2 3 4 5 5
44 43 42 45 47 46 43 35 24 16 13 12 11 11 12 11 8 7 7 7 8 9 8 6 5 4 3 2 2 6 8 10 10 11 13 13 nan nan nan nan nan nan nan nan nan nan 11 10 9 8 8 6 5 4 5 5 5 4 3 4 4 4 4
50 47 45 48 50 50 51 53 50 39 30 21 16 13 12 13 11 8 8 7 8 10 10 8 5 4 3 3 3 2 5 9 11 13 14 nan nan nan nan nan nan nan nan nan nan nan nan nan 9 10 10 8 7 6 7 7 7 6 5 5 5 5 5
51 47 45 48 48 47 50 55 55 53 50 47 40 31 23 21 17 15 13 12 12 12 10 10 7 4 2 2 3 3 3 10 14 16 18 18 18 nan nan nan nan nan nan nan nan nan nan nan 10 10 10 9 9 8 9 8 8 9 8 7 7 7 6
52 48 48 48 47 47 49 54 56 54 55 56 53 51 43 33 32 27 20 18 16 16 15 14 10 7 3 0 1 2 5 8 13 16 18 19 17 16 16 nan nan nan nan nan nan nan nan nan nan 10 10 10 10 10 10 10 11 10 9 8 9 9 8
54 50 51 51 49 49 50 55 57 56 56 56 54 52 49 48 41 31 28 26 25 24 25 20 16 12 7 4 4 5 5 7 9 13 15 16 17 17 17 16 nan nan nan nan nan nan nan nan 12 10 11 11 11 11 11 11 12 11 11 10 9 11 10
54 51 51 52 51 49 50 54 58 57 56 56 56 54 53 50 48 45 32 29 27 27 29 25 20 14 10 7 7 5 4 5 7 8 11 14 15 16 17 18 17 nan nan nan nan 17 17 14 12 11 12 13 12 11 11 12 11 13 13 12 11 12 12
55 53 52 51 50 48 47 50 54 56 56 57 55 55 53 50 50 50 49 40 31 29 25 20 15 12 8 6 6 5 6 7 7 6 8 10 13 16 18 18 17 16 17 16 17 19 17 14 13 13 12 13 12 11 12 12 12 14 14 13 12 12 12
58 52 53 53 50 51 51 49 50 54 56 56 57 56 51 49 52 52 47 45 42 31 25 24 21 19 15 13 11 10 9 9 8 7 6 8 11 14 15 15 15 15 17 19 21 20 17 16 14 14 13 12 12 13 13 13 13 15 14 14 13 12 13
nan 56 57 56 52 51 55 57 57 58 59 57 56 53 52 53 54 50 47 46 41 38 31 25 24 24 23 20 17 15 13 12 10 9 9 9 8 9 10 12 15 17 18 20 19 18 18 17 17 16 15 13 13 14 14 14 12 16 15 14 14 14 15
nan 59 58 58 55 54 58 61 nan 59 56 53 53 50 52 54 54 50 48 45 45 38 35 32 25 23 23 21 19 16 14 13 12 11 11 11 10 9 8 10 13 15 19 20 20 21 21 22 20 18 17 16 15 15 13 13 13 15 15 15 15 16 17
nan 55 56 58 57 58 59 nan nan nan nan nan 52 54 54 53 51 50 47 46 44 42 36 30 28 26 24 23 23 21 17 15 14 14 14 13 11 9 9 10 12 14 19 19 19 20 19 19 19 20 19 18 17 15 14 14 14 15 15 15 16 19 18
nan nan nan nan nan nan nan nan nan nan 56 54 52 53 53 50 47 46 47 47 46 45 41 33 25 23 25 27 27 24 22 20 18 16 16 15 11 9 11 13 14 14 16 16 17 18 18 20 21 21 21 19 18 16 16 16 16 15 14 15 18 20 17
nan nan nan nan nan nan nan nan nan nan nan nan 48 49 51 50 47 45 46 47 46 44 41 38 33 29 28 29 30 28 26 24 21 18 16 16 13 14 14 14 14 16 17 16 18 18 20 21 20 20 21 20 18 17 16 18 19 18 15 15 18 19 17
nan nan nan nan nan nan nan nan nan nan nan nan nan 46 nan 52 49 47 46 46 43 41 39 39 39 38 36 33 31 32 30 27 23 18 15 15 17 19 17 19 19 18 16 16 18 19 20 20 19 17 18 20 20 20 18 18 20 21 15 16 17 19 18
nan nan nan nan nan nan nan nan nan nan nan nan nan nan 52 nan nan 49 48 46 42 39 38 40 40 40 38 35 34 33 29 27 23 18 15 17 21 22 22 22 19 18 17 16 18 18 19 17 18 16 17 19 20 20 19 19 19 22 19 17 17 18 18
nan nan nan nan nan nan nan nan nan nan nan nan nan nan nan nan nan nan 49 47 42 40 39 39 38 39 39 37 34 36 33 26 22 20 19 20 24 25 23 22 21 20 18 19 18 16 16 17 18 17 16 18 18 18 18 18 16 22 22 18 18 18 18
nan nan nan nan nan nan nan nan nan nan nan nan nan nan nan nan nan nan nan 45 43 43 40 38 38 38 38 35 34 34 32 27 20 21 24 25 25 24 23 24 23 22 22 20 19 17 15 16 17 17 16 17 17 17 18 20 21 19 24 21 19 18 18
nan nan nan nan nan nan nan nan nan nan nan nan nan nan nan nan nan nan nan nan 44 44 42 40 39 40 38 36 33 32 31 29 25 23 26 26 27 25 24 25 25 24 24 22 20 19 16 16 17 17 16 15 16 17 18 20 22 22 21 24 21 20 19
nan nan nan nan nan nan nan nan nan nan nan nan nan nan nan nan nan nan nan nan nan 45 44 42 42 42 39 36 35 34 35 33 30 28 28 28 28 28 27 26 27 27 25 24 21 19 16 15 16 15 16 17 16 16 18 20 21 23 21 20 23 21 20
nan nan nan nan nan nan nan nan nan nan nan nan nan nan nan nan nan nan nan nan 45 44 43 43 43 42 39 38 37 37 36 34 31 29 28 28 29 28 28 29 30 28 27 26 22 18 15 15 15 15 15 16 16 16 18 21 22 21 23 23 23 22 19
nan nan nan nan nan nan nan nan nan nan nan nan nan nan nan nan nan nan nan nan 45 44 43 43 42 42 42 41 40 38 37 33 31 30 29 28 29 29 31 32 32 30 29 26 21 18 16 16 16 14 14 13 14 16 20 22 22 21 22 27 27 26 24
nan nan nan nan nan nan nan nan nan nan nan nan nan nan nan nan nan nan nan nan 47 49 50 47 45 45 45 44 43 41 38 35 27 26 30 29 29 30 31 32 31 30 28 25 21 20 19 18 16 14 12 12 15 19 21 22 22 21 21 25 26 25 27
nan nan nan nan nan nan nan nan nan nan nan nan nan nan nan nan nan nan nan 52 50 51 52 52 49 47 47 47 46 44 40 35 34 31 31 31 30 29 28 28 28 27 26 24 25 24 21 18 16 14 13 15 18 20 20 20 19 19 20 21 24 26 28
nan nan nan nan nan nan nan nan nan nan nan nan nan nan nan nan nan nan nan 55 53 51 51 51 50 49 49 49 49 47 42 38 36 35 34 32 30 29 32 46 46 38 29 26 24 21 19 20 17 16 18 20 21 21 19 17 16 20 23 22 25 26 27
nan nan nan nan nan nan nan nan nan nan nan nan nan nan nan nan nan nan nan 56 53 52 51 51 50 49 49 50 51 52 48 41 39 38 36 33 31 31 34 38 39 42 42 39 34 26 22 19 15 17 20 23 23 22 17 17 24 29 27 26 27 28 28
nan nan nan nan nan nan nan nan nan nan nan nan nan nan nan nan nan nan nan 56 53 52 51 51 51 51 50 50 51 53 55 53 51 47 41 37 37 38 36 32 32 31 36 37 33 32 27 22 20 21 22 22 22 24 25 21 19 23 28 28 29 29 27
Wind_Direction
304 300 321 322 327 336 340 339 332 326 332 336 330 328 333 336 334 nan 334 309 290 260 237 232 237 225 208 180 172 nan nan nan 172 nan nan nan nan nan nan nan 185 186 190 183 166 159 158 169 151 136 129 103 95 90 86 91 94 96 103 104 97 93 92
298 304 319 320 326 334 331 322 324 325 329 325 320 325 328 341 337 342 350 334 300 268 243 227 225 219 214 194 185 nan nan nan 177 179 nan nan nan nan nan nan nan 185 186 177 177 173 183 176 165 144 120 88 65 71 74 81 87 89 97 106 104 102 97
313 308 313 309 319 327 328 314 318 330 333 323 324 328 336 341 337 341 348 347 323 268 239 231 226 223 210 201 195 nan nan nan nan 181 nan nan nan nan nan nan nan 183 175 185 189 186 186 183 176 161 110 45 37 37 48 65 81 87 93 103 109 108 113
312 322 329 325 319 315 322 333 338 333 327 329 329 334 331 327 321 329 348 357 348 309 268 235 232 226 214 204 195 190 nan nan nan 187 180 nan nan nan nan nan nan nan 196 192 193 195 192 190 181 175 52 10 14 19 24 43 72 92 97 110 115 119 115
314 312 299 268 248 255 277 314 342 339 329 327 325 322 318 309 311 320 345 7 5 351 310 258 230 228 218 206 196 197 nan nan nan nan 189 nan nan nan nan nan nan nan 195 201 204 204 205 207 201 221 18 349 351 353 19 45 73 98 111 121 124 128 121
313 291 278 265 247 257 280 304 329 337 326 320 321 310 299 306 308 325 340 3 18 10 335 280 251 241 237 222 204 199 197 nan nan nan nan nan nan nan nan nan nan nan nan 206 212 215 223 229 235 259 346 349 345 351 12 62 100 108 119 126 125 126 125
324 301 283 274 269 274 288 293 302 328 317 304 299 287 282 296 312 313 319 357 15 15 7 344 293 247 235 233 220 211 206 202 nan nan nan nan nan nan nan nan nan nan nan nan 211 224 236 246 263 297 356 353 349 356 15 88 114 127 131 130 126 125 122
337 316 288 275 280 288 279 257 238 257 287 272 286 295 295 289 292 301 318 345 12 21 18 10 342 254 235 232 232 226 215 209 nan nan nan nan nan nan nan nan nan nan nan nan nan 226 241 257 265 281 337 353 358 2 32 98 118 133 140 128 123 119 124
344 331 311 289 277 263 240 214 217 236 267 290 301 305 307 290 293 302 313 321 354 13 18 16 11 273 225 222 229 233 228 220 211 nan nan nan nan nan nan nan nan nan nan nan nan nan 239 254 269 286 320 354 356 359 21 94 124 139 137 127 118 111 114
165 302 311 294 265 230 226 226 226 222 222 233 242 261 299 286 276 282 289 305 323 359 357 358 10 306 233 223 222 232 234 228 219 212 nan nan nan nan nan nan nan nan 218 225 nan nan 245 256 273 283 308 342 353 350 353 35 143 142 135 124 118 113 106
184 190 222 272 259 232 233 238 241 237 234 232 233 241 256 253 256 269 281 291 307 324 329 332 330 343 315 239 229 229 233 236 232 224 210 nan nan nan nan nan nan nan nan 223 227 239 247 252 263 276 291 317 338 339 335 312 235 155 140 144 139 117 111
198 207 205 203 206 215 231 240 242 238 232 224 225 233 230 223 235 254 263 283 286 285 290 318 312 327 328 260 239 229 232 234 236 233 224 nan nan nan nan nan nan nan nan nan 224 231 240 250 254 264 276 283 299 312 315 295 266 227 162 151 156 147 137
208 214 218 220 218 210 207 209 215 226 224 216 219 223 220 219 224 236 246 261 273 272 278 285 296 305 316 316 281 235 228 228 228 229 227 221 nan nan nan nan nan nan nan nan nan nan 235 240 246 246 255 265 269 277 286 283 271 251 213 188 187 178 163
212 218 220 222 221 217 212 208 203 199 195 190 191 195 203 210 215 227 233 244 253 259 263 254 278 295 317 334 350 289 237 222 217 218 221 nan nan nan nan nan nan nan nan nan nan nan nan nan 244 243 244 252 257 258 260 268 269 263 245 222 215 211 194
208 207 211 216 217 218 215 209 202 200 203 201 192 183 182 192 198 202 204 214 222 233 246 254 253 259 286 347 9 355 247 222 216 213 216 220 221 nan nan nan nan nan nan nan nan nan nan nan 238 243 245 247 252 253 254 260 266 261 256 244 232 228 221
205 197 200 208 213 217 216 209 203 202 202 202 199 196 194 197 197 192 195 202 210 215 227 236 234 234 228 41 3 271 239 230 221 218 219 222 222 220 217 nan nan nan nan nan nan nan nan nan nan 240 247 249 250 252 252 254 255 268 299 283 253 244 231
207 198 196 201 208 214 213 207 203 202 202 202 200 199 203 202 198 201 199 201 203 206 214 219 219 216 205 184 218 237 247 247 234 226 226 224 223 223 221 218 nan nan nan nan nan nan nan nan 231 234 241 247 248 251 250 252 255 287 289 295 298 265 247
208 202 198 198 203 207 208 205 203 201 201 201 201 201 202 202 204 200 201 206 205 212 215 215 214 212 205 201 222 239 267 270 259 241 231 229 227 227 225 223 220 nan nan nan nan 220 224 227 230 232 236 238 243 247 249 250 265 286 291 296 299 285 262
207 206 202 200 203 206 208 207 204 201 201 202 203 202 201 202 203 209 206 202 207 214 215 219 219 221 222 235 253 275 284 278 276 266 242 235 234 231 229 228 224 219 219 218 218 222 224 224 229 231 233 235 240 242 245 245 266 281 291 294 296 297 278
208 206 204 205 204 206 209 210 207 206 204 205 204 202 202 204 205 207 210 213 201 205 213 209 206 204 207 214 221 231 245 261 272 273 263 246 242 241 239 235 229 223 220 218 220 221 220 223 227 230 233 234 235 237 238 243 258 281 288 292 294 293 278
nan 206 203 203 204 207 208 207 204 203 202 206 206 206 205 205 205 204 207 206 208 207 209 218 213 209 210 213 217 222 226 237 246 250 256 260 258 252 246 240 230 226 223 223 224 222 220 221 223 226 230 229 229 231 234 236 263 277 287 290 292 290 275
nan 203 203 201 201 204 206 206 nan 203 201 203 207 209 209 207 206 205 204 205 209 211 208 208 214 214 212 211 213 216 220 230 239 242 245 254 259 259 254 245 239 232 227 223 220 219 218 217 218 221 226 228 228 227 227 231 261 275 284 290 288 287 260
nan 201 202 200 200 202 203 nan nan nan nan nan 209 211 212 207 206 207 206 206 210 211 209 211 207 205 210 213 213 213 210 212 224 233 236 242 250 256 255 252 246 237 232 227 223 222 221 219 219 219 222 227 229 228 224 227 249 272 282 286 290 273 255
nan nan nan nan nan nan nan nan nan nan 201 201 206 212 214 210 206 206 209 209 210 210 208 209 208 208 211 213 216 214 207 205 212 224 232 232 234 244 245 246 243 244 241 234 228 223 221 221 218 218 219 225 228 230 225 225 240 264 272 280 283 277 264
nan nan nan nan nan nan nan nan nan nan nan nan 204 209 215 215 209 207 209 209 208 208 206 201 202 209 213 215 219 216 207 202 204 212 227 233 226 229 236 240 243 241 239 232 228 223 224 225 222 220 220 221 225 232 231 225 234 257 266 275 278 274 258
nan nan nan nan nan nan nan nan nan nan nan nan nan 212 nan 216 212 206 206 206 203 202 203 201 200 202 207 215 221 217 208 203 204 206 218 230 229 228 228 230 234 238 239 232 227 225 226 227 227 226 223 223 224 227 232 231 231 245 267 272 277 283 266
nan nan nan nan nan nan nan nan nan nan nan nan nan nan 217 nan nan 206 203 201 199 197 200 201 199 198 199 200 206 210 207 208 211 210 215 228 232 230 228 230 233 236 235 232 227 225 225 227 228 228 226 227 226 225 229 232 235 243 266 271 278 284 279
nan nan nan nan nan nan nan nan nan nan nan nan nan nan nan nan nan nan 203 201 197 197 198 197 196 196 195 194 195 196 203 217 224 219 216 226 233 233 231 230 231 232 234 230 228 228 227 227 228 230 230 230 231 228 228 234 247 242 257 273 278 281 290
nan nan nan nan nan nan nan nan nan nan nan nan nan nan nan nan nan nan nan 200 195 195 196 195 194 192 194 195 194 196 202 213 225 225 223 228 234 237 236 234 232 231 231 231 230 228 227 227 229 232 234 236 235 232 230 232 237 253 252 267 278 283 284
nan nan nan nan nan nan nan nan nan nan nan nan nan nan nan nan nan nan nan nan 197 196 193 193 194 193 192 195 198 202 205 208 214 225 229 232 235 237 238 238 237 234 232 233 233 230 229 228 230 232 236 240 239 236 234 234 235 243 258 261 278 279 286
nan nan nan nan nan nan nan nan nan nan nan nan nan nan nan nan nan nan nan nan nan 194 191 191 192 194 195 199 204 208 209 209 212 220 227 231 237 238 237 239 241 238 235 235 234 232 231 233 236 236 236 237 239 240 239 240 239 238 247 265 270 280 283
nan nan nan nan nan nan nan nan nan nan nan nan nan nan nan nan nan nan nan nan 197 193 191 191 193 196 199 203 205 206 209 210 212 218 224 231 234 238 238 241 242 240 239 238 235 234 236 238 241 239 237 237 240 244 246 246 244 242 243 247 256 261 273
nan nan nan nan nan nan nan nan nan nan nan nan nan nan nan nan nan nan nan nan 200 197 194 195 197 200 201 200 202 205 209 212 214 219 224 229 233 235 237 238 240 241 241 241 239 238 239 242 246 246 246 244 245 247 248 248 247 245 245 248 250 249 249
nan nan nan nan nan nan nan nan nan nan nan nan nan nan nan nan nan nan nan nan 206 201 197 196 199 201 202 200 201 202 206 210 215 222 227 232 236 236 236 238 242 245 245 245 244 241 237 239 243 249 252 247 244 245 247 248 249 250 249 250 252 252 251
nan nan nan nan nan nan nan nan nan nan nan nan nan nan nan nan nan nan nan 214 210 206 202 198 197 201 201 203 202 200 204 210 216 223 228 233 237 239 243 246 245 243 239 240 241 241 242 240 240 246 249 247 246 247 245 248 251 252 256 253 259 259 254
nan nan nan nan nan nan nan nan nan nan nan nan nan nan nan nan nan nan nan 214 212 208 204 201 200 200 202 204 203 201 204 212 218 225 228 233 237 239 237 226 228 230 234 238 246 251 248 244 239 246 247 247 246 249 251 251 252 244 250 249 252 259 267
nan nan nan nan nan nan nan nan nan nan nan nan nan nan nan nan nan nan nan 215 213 209 207 205 204 203 205 205 206 204 203 212 221 226 229 232 236 237 240 237 235 238 242 236 234 241 248 246 246 248 252 250 243 246 250 237 235 247 260 257 255 260 262
nan nan nan nan nan nan nan nan nan nan nan nan nan nan nan nan nan nan nan 215 212 210 208 207 206 204 207 209 209 209 210 212 218 221 225 229 232 236 242 243 246 237 233 243 248 240 238 242 246 250 252 252 249 246 242 244 251 259 264 266 265 265 266